Погода в Гёджеке

Турция     36°45′09″N   28°56′32″E
темп.,
°C
ветер,
м/с
пор.,
м/с
влажн.,
%
обл.,
%
осадки,
мм/ч
давл.,
гПа
погр.,
м
21 апреля, ср
ср2100:00+12св21660 0.0 101624
03:00+11с11590 0.0 101627
06:00+10ссв22590 0.0 101628
09:00+16зсз12390 0.0 1017531
12:00+20юз543149 0.0 10171380
15:00+19юз4435100 0.0 10171131
18:00+19зюз45410 0.0 1016909
21:00+13всв22725 0.0 101837
22 апреля, чт
чт2200:00+12ссв22595 0.0 101926
03:00+12ссв22512 0.0 101828
06:00+11ссв32505 0.0 101936
09:00+18ссз12350 0.0 1019525
12:00+21юз43260 0.0 10201404
15:00+21юз442910 0.0 1019784
18:00+19юз33371 0.0 1019505
21:00+15всв22515 0.0 101923
23 апреля, пт
пт2300:00+15св22435 0.0 101915
03:00+14ссв11416 0.0 101912
06:00+14св223711 0.0 101822
09:00+21юз112980 0.0 1018325
12:00+22ююз3227100 0.0 1019797
15:00+23юз32293 0.0 1018796
18:00+21юз2231100 0.0 1017365
21:00+17св1141100 0.0 101712
24 апреля, сб
сб2400:00+17св224144 0.0 101714
03:00+17ссв1145100 0.0 101511
06:00+17св2243100 0.0 101415
09:00+23зсз1133100 0.0 1014284
12:00+24юз2230100 0.0 1014671
15:00+24зсз1230100 0.0 1013574
18:00+26зсз122941 0.0 1011259
21:00+18вюв1156100 0.0 101224
25 апреля, вс
вс2500:00+19юз2352100 0.0 101154
03:00+19с1150100 0.0 101021
06:00+18сз2250100 0.0 100915
09:00+22юв2241100 0.0 1009304
12:00+23юз3338100 0.0 1009538
15:00+23юз543953 0.0 1007769
18:00+21юз224057 0.0 1006565
21:00+17ссв225617 0.2 100721